Погода в Бобровке

Россия / Челябинская область     54°02′43″N   61°44′24″E
темп.,
°C
ветер,
м/с
пор.,
м/с
влажн.,
%
обл.,
%
осадки,
мм/ч
давл.,
гПа
погр.,
м
16 апреля, пт
пт1623:00+11зюз4557100 0.0 102153
02:00+9з3363100 0.0 102031
05:00+8сз227299 0.0 102012
08:00+11с236937 0.0 102062
11:00+16ссв45527 0.0 1020590
14:00+18ссв55482 0.0 10201361
17:00+13св886875 0.0 1023840
20:00+9св687597 0.0 1024552
17 апреля, сб
сб1723:00+8всв5770100 0.0 1025519
02:00+7св3564100 0.0 1025315
05:00+6всв357193 0.1 1026230
08:00+6в2473100 0.1 1026198
11:00+7в2267100 0.1 1026257
14:00+6в2274100 0.2 1025217
17:00+9ююз126684 0.2 1023412
20:00+7юв227555 0.0 102214
18 апреля, вс
вс1823:00+7в1178100 0.1 102110
02:00+7ссз488399 0.3 1020184
05:00+4сз38714 0.3 1021153
08:00+5сз410630 0.0 1021434
11:00+9ссз795028 0.0 10211470
14:00+6ссв896399 0.0 1024836
17:00+6св883994 0.0 10261665
20:00+3св7104013 0.0 1028868
19 апреля, пн
пн1923:00+1всв610471 0.0 1031679
02:00−1всв48535 0.0 1033554
05:00−2всв365663 0.0 1034358
08:00−1всв564210 0.0 10361048
11:00+1св563124 0.0 10361611
14:00+2всв56294 0.0 10361792
17:00+3всв56285 0.0 10361831
20:00+1всв47375 0.0 1037286
20 апреля, вт
вт2023:00−1всв38460 0.0 1038290
02:00−2в24520 0.0 1038121
05:00−3вюв12510 0.0 103923
08:00−1юв11375 0.0 1039448
11:00+2юв01305 0.0 10381062
14:00+4з22264 0.0 10371116
17:00+6з33252 0.0 10341166
20:00+5зюз22330 0.0 103423